Theta_e
279 280 280 281 281 281 281 281 280 279 279 279 277 273 279 278 274 275 276 277 277 278 280 282 284 284 284 284 286 286 287 288 289 289 290 289 289 289 290 290 291 291 293 293 294 294 296 296 297 298 299 300 300 301 304 306 308 312 314 313 313 313 310 309 309 309 308 305 305 305 305 304 304 304 303 303 302 302 302 300 300 298 297 296 296 294 293
278 280 280 281 281 279 280 281 280 280 279 279 280 280 279 280 279 280 280 277 278 281 280 281 284 285 284 285 286 287 289 288 289 288 288 288 288 289 290 290 291 292 293 293 293 293 294 295 296 297 298 299 300 300 301 303 305 307 309 311 312 311 310 309 305 304 304 303 303 304 305 304 304 304 303 302 301 300 300 299 298 297 296 295 294 294 294
276 277 280 280 279 279 278 279 279 279 279 280 280 279 278 280 279 278 278 276 276 279 282 283 284 284 285 287 288 288 287 288 289 288 288 288 288 289 290 291 292 292 293 293 294 293 293 294 294 296 297 298 299 300 301 302 303 304 305 307 308 309 308 306 306 306 305 304 304 303 303 303 302 303 303 302 301 299 298 297 297 297 295 293 292 293 293
274 276 279 279 279 278 277 276 278 278 278 274 276 277 278 277 276 274 275 274 273 277 281 284 285 286 287 287 287 288 288 288 288 287 288 289 289 290 291 292 292 293 294 294 295 294 294 294 295 294 296 297 297 298 300 301 302 303 304 305 307 308 307 307 307 307 306 306 305 305 304 304 304 303 303 301 299 297 296 295 295 294 293 292 292 292 292
270 276 278 279 276 276 277 273 276 279 279 280 278 280 280 280 278 275 271 274 276 281 286 285 286 284 286 286 287 287 288 287 288 288 289 289 289 290 291 292 293 293 293 294 295 296 297 297 297 297 297 296 297 298 299 301 302 302 303 304 306 307 306 306 306 306 305 305 306 306 305 304 303 303 302 301 298 296 296 296 293 293 292 293 292 291 291
267 272 276 276 272 270 271 275 279 282 280 279 278 278 279 279 280 275 278 279 279 280 283 284 284 284 286 287 288 289 289 287 287 289 289 289 289 289 290 291 291 292 293 294 296 296 296 297 298 298 298 299 299 300 300 300 300 301 302 304 305 306 306 306 306 306 305 305 305 304 304 303 302 301 300 299 297 297 296 294 292 292 292 292 291 291 290
273 272 274 270 268 272 278 279 280 282 281 280 280 279 279 279 281 282 281 282 281 284 284 285 285 285 287 287 289 289 289 289 288 289 289 288 289 290 290 291 292 292 292 293 294 295 297 298 299 299 299 298 298 299 299 299 300 301 302 303 304 305 305 306 306 305 305 304 303 302 302 302 301 301 300 297 296 295 295 293 292 291 291 291 290 291 290
269 269 268 263 271 277 279 280 281 283 284 281 281 279 280 281 281 282 281 282 283 284 284 284 285 286 286 287 288 288 289 289 289 288 288 289 289 290 291 291 291 292 293 294 295 296 298 298 299 299 298 299 299 299 300 300 300 301 302 302 303 304 305 305 305 306 305 302 301 302 302 301 301 299 297 296 294 293 291 290 290 291 289 290 290 289 288
270 265 267 272 275 277 278 278 278 280 278 278 278 273 275 279 281 281 281 283 283 283 283 284 284 284 284 283 284 286 288 289 289 290 290 290 291 291 291 291 292 293 294 295 296 297 297 297 298 298 299 299 299 299 300 301 301 301 301 302 303 304 304 305 305 305 304 302 302 302 302 301 298 296 294 293 293 293 291 290 290 290 290 289 290 288 287
273 271 266 265 266 266 267 278 282 285 285 283 281 279 275 282 281 283 283 281 281 282 282 282 282 283 280 279 279 284 287 289 289 289 289 290 291 291 291 292 292 293 294 295 296 296 296 297 298 298 299 299 299 299 299 300 301 301 301 302 303 303 304 304 305 304 303 302 301 301 300 298 296 294 293 293 292 293 292 290 290 291 290 290 288 288 287
270 270 267 264 263 265 269 278 283 284 284 284 280 276 275 281 281 282 283 283 282 282 282 283 282 282 278 278 282 286 286 286 287 288 290 291 291 292 292 292 292 294 294 295 297 297 296 296 298 298 298 298 298 298 299 300 301 301 301 302 303 303 303 303 304 303 302 302 301 299 298 296 294 293 293 293 293 292 291 291 292 290 291 290 288 287 287
269 267 267 267 268 268 280 282 283 285 285 283 278 270 268 280 283 284 283 283 282 282 281 282 284 282 277 280 283 285 286 286 288 288 291 291 292 293 293 292 293 294 295 295 295 295 295 296 298 298 298 298 298 299 300 300 300 300 301 302 303 304 303 303 301 301 301 301 299 297 295 294 294 293 293 292 290 290 289 290 290 289 291 289 288 288 287
272 274 268 267 270 278 283 283 285 286 287 282 272 269 276 285 285 286 285 283 283 282 283 283 282 282 285 287 288 288 288 289 290 290 290 291 292 292 292 293 294 293 293 294 294 295 297 297 298 298 298 298 298 299 299 299 299 301 302 303 303 302 301 300 300 299 298 298 296 295 294 294 294 293 292 291 290 289 288 287 287 287 288 287 287 286 285
271 269 270 271 270 278 284 285 287 287 281 272 271 279 285 285 286 287 285 285 284 283 285 283 283 286 287 288 288 288 288 288 289 290 291 291 291 291 292 293 293 293 293 294 294 295 296 297 298 298 299 298 298 298 298 298 299 301 302 301 300 300 300 300 299 298 298 297 297 295 294 294 292 290 289 290 290 289 286 286 286 286 285 286 285 283 281
270 267 269 268 268 279 286 285 281 285 276 276 283 285 286 287 286 286 286 285 286 284 284 285 286 286 287 287 288 288 288 288 289 290 290 290 290 291 291 291 293 293 293 294 295 295 297 298 299 300 301 299 299 298 297 298 300 300 299 300 300 300 299 299 298 298 297 296 295 295 294 293 292 289 287 288 286 286 285 285 285 285 283 282 282 282 280
267 267 267 269 277 281 287 284 277 280 284 286 286 285 284 284 285 286 286 286 286 285 285 286 286 287 287 287 288 288 289 289 288 289 289 289 290 290 291 292 293 294 294 295 295 296 297 299 301 302 302 299 297 296 296 297 296 298 299 300 300 299 299 298 298 298 297 296 295 294 293 292 291 289 287 286 286 287 285 286 285 283 281 282 281 282 281
272 267 267 276 281 284 286 288 287 287 288 289 288 287 286 284 285 285 284 286 287 287 287 286 286 286 287 287 288 288 289 289 289 289 290 290 290 291 291 292 293 294 294 294 295 296 298 299 301 302 300 296 293 293 294 294 296 298 299 300 299 298 298 298 297 297 296 295 295 295 293 292 290 288 285 286 286 283 285 284 283 283 281 281 282 282 282
278 280 281 282 281 282 283 287 288 287 288 289 289 288 284 284 286 286 285 286 287 287 287 286 286 286 287 288 288 289 289 289 289 290 290 289 290 290 291 292 293 294 295 295 296 297 298 300 301 300 299 297 295 296 298 298 299 300 300 299 298 297 297 297 296 296 295 294 294 293 291 291 290 288 288 286 286 286 285 284 283 283 282 282 282 281 281
274 269 274 279 280 281 282 283 285 286 288 288 287 286 286 286 287 287 286 286 287 287 288 287 287 288 288 288 288 288 288 289 289 289 289 289 290 290 291 293 294 294 295 295 297 297 297 299 300 300 299 298 298 298 298 299 299 299 297 297 296 296 296 296 296 295 294 293 292 290 289 288 288 288 288 287 288 287 285 284 282 282 283 283 283 282 281
272 271 276 280 282 282 282 282 282 282 285 286 287 287 287 287 287 286 287 287 286 286 286 287 287 287 288 286 287 287 288 288 289 289 289 289 290 291 292 293 294 295 295 296 297 297 297 299 300 299 298 297 298 298 299 299 298 297 296 295 295 295 295 295 294 293 292 288 289 288 288 289 288 286 286 287 286 286 284 283 282 282 282 282 283 283 282
277 279 280 281 281 281 281 282 282 282 283 284 284 285 285 285 285 285 286 286 287 287 288 288 286 285 286 286 287 287 288 288 288 289 289 290 290 291 292 293 294 295 296 297 297 297 298 299 299 298 298 298 299 298 298 298 298 296 295 294 294 295 295 294 292 291 291 290 289 288 287 287 285 285 286 285 286 284 282 282 284 284 282 282 283 282 282
272 273 277 279 274 275 279 281 282 282 284 283 283 284 284 284 284 285 285 286 286 287 287 287 286 285 286 287 287 287 288 288 289 289 289 290 291 292 293 294 295 296 297 298 298 297 297 299 298 298 297 297 298 299 299 298 298 295 294 294 294 293 292 291 290 290 289 288 288 288 287 287 288 287 285 286 285 284 282 286 287 287 287 283 283 282 281
273 279 281 280 280 280 282 283 283 283 284 284 284 284 285 285 285 285 284 285 286 286 286 286 286 286 287 287 287 287 287 288 289 289 290 290 291 292 293 293 294 295 297 297 297 297 298 298 297 297 296 297 297 299 298 298 297 295 294 292 291 290 290 289 289 289 288 288 288 287 287 287 287 287 287 286 287 287 287 288 287 287 287 288 287 286 285
281 283 283 284 282 281 283 284 284 284 285 284 284 285 285 285 285 286 285 286 286 287 287 287 288 287 287 287 286 286 287 287 288 289 290 291 291 292 293 294 294 295 296 297 297 296 298 297 296 296 296 297 298 298 298 297 296 292 291 290 290 289 289 288 288 289 289 288 287 287 285 285 286 285 285 285 285 286 287 287 288 288 287 287 287 287 287
281 284 284 284 282 283 284 284 285 285 286 287 285 286 285 285 286 287 287 287 288 287 287 287 288 288 286 287 286 286 287 287 289 290 291 291 291 292 294 295 295 296 296 298 297 297 298 297 296 296 296 297 298 298 297 296 294 292 292 290 289 289 289 289 288 288 288 287 287 287 286 286 286 284 284 283 282 281 281 286 286 287 287 287 287 287 287
284 284 285 285 284 284 285 284 284 285 286 285 284 285 287 290 289 289 288 288 288 288 287 287 287 287 285 286 285 285 286 287 289 290 291 292 293 293 294 295 297 298 298 298 298 298 298 297 296 296 296 297 298 296 295 295 294 293 292 291 290 290 289 289 289 289 287 287 286 285 285 285 285 284 283 284 280 280 281 282 282 282 285 286 287 287 287
283 284 283 282 281 282 283 282 283 285 284 284 284 285 286 287 289 288 288 288 288 288 287 287 287 286 286 285 286 286 287 289 290 291 291 292 293 295 296 297 297 297 297 297 297 297 295 296 296 296 296 297 297 295 295 295 293 292 291 291 289 288 288 288 289 288 286 286 286 285 284 285 283 283 283 281 280 280 281 280 279 281 281 282 285 286 283
283 283 282 280 280 282 283 284 284 284 284 285 285 286 286 286 285 285 285 286 286 287 286 285 285 285 286 286 286 288 289 290 291 291 291 292 295 296 296 297 296 295 295 295 295 295 296 296 296 295 294 293 294 295 295 294 292 292 291 290 289 288 287 288 287 286 285 286 285 286 285 285 284 282 281 281 280 280 280 280 280 279 280 278 278 281 285
284 285 284 283 283 284 285 285 285 285 285 284 285 284 284 284 285 285 285 285 285 286 286 284 284 284 285 287 287 289 291 292 291 292 292 293 294 295 296 295 294 294 294 293 294 295 294 294 293 292 291 293 294 294 294 293 292 291 290 289 288 288 287 287 287 287 287 286 286 286 286 285 282 281 280 281 280 281 280 280 279 278 279 279 280 282 283
286 285 286 286 286 285 284 283 283 282 283 283 283 284 284 284 284 285 285 286 285 286 286 284 284 285 287 289 290 291 290 290 290 291 291 291 291 292 293 294 293 292 292 291 291 291 291 291 291 290 291 292 292 293 293 292 291 290 289 289 289 289 287 287 287 288 286 286 287 286 285 284 283 282 281 280 280 280 279 277 279 278 278 279 282 277 279
285 286 287 287 285 283 282 281 281 281 282 283 283 284 284 284 284 284 285 285 285 286 285 286 285 286 290 291 290 290 289 288 288 289 289 289 289 289 290 290 288 287 287 288 289 290 289 290 289 289 291 291 291 291 292 291 289 288 288 288 288 287 286 286 287 288 287 285 286 286 286 284 282 282 281 279 279 280 279 277 276 276 278 279 278 279 280
286 286 287 286 285 284 284 283 283 283 283 284 284 284 284 285 286 287 287 287 287 286 286 288 289 290 289 289 288 287 287 287 287 287 287 287 287 287 288 288 288 287 288 287 288 288 289 289 289 290 291 290 290 290 290 289 288 288 287 286 286 285 285 286 286 286 285 285 284 283 283 284 281 280 280 279 279 279 277 278 278 277 276 278 278 278 280
283 284 284 284 284 284 283 284 284 284 285 285 285 286 287 289 290 289 289 289 289 290 291 291 290 289 288 288 287 286 286 286 286 286 286 286 287 287 287 287 287 287 287 288 288 288 288 288 289 291 291 291 290 289 288 287 286 287 286 285 285 285 285 285 285 286 285 284 283 282 281 281 281 282 280 279 279 278 277 277 277 277 278 279 280 280 280
283 282 283 284 284 282 282 283 285 285 286 287 288 289 290 291 289 290 291 290 289 289 288 289 289 288 288 287 286 286 286 285 284 284 284 285 286 287 288 288 288 287 287 287 288 288 288 289 289 290 291 291 290 290 289 289 288 286 286 285 286 286 286 285 285 284 284 283 283 283 283 282 283 281 280 280 280 280 279 279 279 279 279 280 281 281 282
287 286 287 286 287 286 286 286 285 286 286 287 288 288 289 288 288 288 288 288 288 288 288 288 287 287 286 286 285 285 284 283 283 284 284 285 285 286 287 288 288 288 287 287 287 287 288 289 289 290 290 290 290 290 289 288 288 288 288 288 286 285 285 285 285 283 283 283 283 283 283 283 282 283 282 282 282 282 281 281 280 280 279 280 281 281 282
287 287 286 286 286 287 286 286 286 287 287 287 287 286 285 286 287 288 287 287 288 288 287 287 287 286 285 285 284 284 283 284 284 284 284 284 285 286 286 285 286 286 285 285 286 287 288 288 286 287 289 289 289 289 288 288 288 287 287 287 286 286 285 285 284 284 283 283 283 283 283 282 283 283 282 282 282 282 282 282 282 281 281 281 281 281 281
287 286 286 286 286 286 286 286 286 287 287 286 286 286 286 287 287 287 287 287 287 286 286 286 285 285 284 284 285 285 284 284 284 284 284 285 285 284 284 283 283 283 284 283 284 286 287 287 286 287 288 288 288 288 287 287 289 288 287 287 286 285 285 285 284 284 283 283 282 282 282 282 282 282 282 282 282 282 282 281 282 281 281 281 281 281 281
287 287 286 286 286 286 285 285 286 287 287 287 287 287 287 287 287 287 286 286 286 286 285 285 285 284 285 285 284 284 284 284 284 284 284 284 284 282 282 282 281 282 282 282 284 285 285 286 286 287 288 288 288 287 287 286 286 287 286 286 285 285 284 284 284 284 283 282 282 282 282 283 283 282 281 281 281 281 281 281 282 281 281 281 281 281 282
286 287 287 287 286 286 285 286 286 285 286 286 287 287 287 287 286 286 285 285 285 285 284 284 284 283 283 283 282 283 283 284 283 283 283 283 283 282 281 282 282 282 282 284 285 284 285 285 286 286 286 286 287 287 286 286 286 287 286 286 285 285 284 284 284 284 283 283 283 282 282 283 283 283 282 281 281 281 282 282 282 282 282 282 283 282 283
286 286 286 286 285 285 285 285 285 285 285 286 286 286 286 286 286 285 285 284 284 284 284 283 283 282 282 282 282 282 282 283 283 283 282 282 283 282 282 282 282 283 283 283 284 284 284 284 285 285 284 284 285 284 284 285 285 285 285 284 284 284 284 283 283 282 283 283 283 283 283 283 283 283 283 282 282 282 282 282 282 282 282 282 282 282 282
286 286 286 285 285 285 285 285 285 285 285 285 286 286 286 286 286 285 285 285 285 285 284 283 283 282 282 282 282 282 282 282 282 282 282 282 281 280 280 279 281 283 283 283 283 283 284 283 284 283 283 283 283 283 283 284 283 283 283 283 283 282 282 282 282 282 282 283 283 283 283 283 283 282 282 282 282 282 282 282 282 282 282 282 282 282 282
286 286 286 285 285 285 285 285 285 285 285 285 285 286 286 286 286 285 285 286 285 286 285 285 284 283 283 283 282 282 282 281 281 281 281 280 279 279 279 279 282 282 283 283 283 283 283 283 283 283 283 283 283 283 283 283 282 282 282 282 282 281 281 282 282 283 283 284 283 283 283 283 283 282 282 282 282 282 282 281 281 281 281 282 282 282 282
286 286 286 285 285 285 285 285 285 285 285 285 286 286 286 286 286 285 285 285 285 285 284 284 284 284 283 282 282 281 281 281 281 281 280 280 280 280 280 280 281 282 283 282 282 282 282 282 282 282 283 283 282 282 282 282 282 281 281 281 281 281 281 282 282 283 283 283 283 283 283 283 282 282 282 282 281 281 281 281 280 280 281 281 281 281 281
286 286 286 286 285 285 286 286 286 286 285 285 286 287 286 286 286 285 284 284 284 284 283 282 282 281 281 281 281 280 280 280 280 280 280 279 280 280 280 280 280 282 282 282 282 281 281 282 282 282 282 283 282 282 282 281 281 281 280 280 280 281 281 282 282 283 283 283 283 282 282 283 282 282 282 282 281 281 281 281 281 280 280 280 280 280 280
284 285 285 286 286 286 286 285 285 285 285 286 286 286 286 285 285 285 284 283 283 283 283 282 281 281 281 281 280 280 280 280 280 280 279 278 277 278 280 281 281 281 281 282 281 281 281 281 282 282 282 282 282 282 281 281 281 281 281 281 282 282 282 282 282 282 282 282 282 282 283 282 282 282 282 282 282 281 281 280 280 280 279 279 279 279 279
282 283 283 283 285 285 285 286 286 287 286 285 284 285 285 284 283 283 282 282 282 282 282 282 281 281 281 280 280 280 280 280 281 281 280 279 278 278 280 280 280 281 281 281 281 281 281 282 281 281 281 282 282 282 282 282 282 282 282 282 282 282 282 282 282 282 282 282 282 282 282 282 282 282 282 281 281 280 280 280 279 279 279 278 278 278 278
281 281 281 281 282 283 283 283 284 285 284 284 283 282 283 283 282 282 282 282 282 281 281 281 281 281 281 280 280 279 279 278 279 279 279 279 279 280 280 280 281 280 280 280 280 280 281 281 281 281 281 281 281 281 281 281 281 281 281 281 281 281 281 281 281 281 281 281 281 281 281 281 281 281 281 280 280 279 279 278 278 278 278 278 277 277 277
281 281 281 281 282 281 280 281 281 281 281 280 279 278 279 280 280 280 280 281 280 280 280 280 280 280 280 280 280 280 279 279 277 278 279 278 279 278 278 279 279 280 279 279 279 280 281 281 281 280 280 280 280 280 280 280 280 280 280 280 280 280 280 280 280 280 280 280 280 280 280 279 279 280 279 279 278 278 278 278 277 277 277 276 276 276 276
280 280 280 280 279 279 279 280 279 279 278 277 278 277 278 279 278 278 279 279 279 279 279 279 279 279 280 280 280 279 280 280 278 276 278 278 278 278 278 280 280 280 278 277 278 278 280 280 280 280 279 279 278 279 279 279 279 279 279 279 279 279 280 279 279 279 279 279 279 279 279 279 279 278 278 278 278 278 278 277 277 277 276 276 276 275 275
281 280 280 279 279 278 278 278 277 277 277 277 277 277 278 278 278 277 277 278 278 278 278 278 278 278 278 278 279 279 279 279 279 279 279 279 279 279 279 279 279 280 279 277 277 277 278 279 279 279 278 277 277 278 278 278 278 278 278 278 278 278 279 279 279 279 278 278 278 278 278 278 278 278 278 277 277 277 277 277 276 277 277 276 275 275 275
280 280 280 279 278 278 278 278 278 277 276 276 276 277 277 277 276 277 277 277 277 277 277 277 277 277 277 277 277 278 278 279 279 280 279 279 279 279 279 278 278 278 277 277 276 275 275 277 278 278 277 277 276 277 277 277 277 277 277 277 277 277 277 277 277 277 277 277 277 277 277 277 277 277 277 276 276 276 276 276 275 275 275 275 274 274 274
280 279 279 278 278 278 277 277 277 277 276 276 276 276 276 276 276 276 276 278 277 277 277 277 276 276 277 277 277 277 278 278 278 278 278 278 278 277 278 279 276 277 277 276 275 276 275 275 276 277 278 277 277 277 278 278 277 277 277 277 276 276 276 276 276 276 276 276 276 276 276 276 276 276 276 276 276 276 275 275 275 275 275 274 274 274 274
Wind_Speed
4 4 6 5 3 3 4 4 3 4 5 2 5 5 7 6 5 9 4 6 5 4 6 3 3 5 2 4 3 3 2 0 1 4 6 7 5 5 6 4 4 5 5 5 6 6 5 5 7 8 9 10 10 8 5 5 4 5 5 5 6 6 4 4 4 4 5 3 2 6 8 9 10 9 8 8 7 7 6 6 6 6 5 5 5 4 4
3 5 3 3 3 3 3 4 5 5 4 7 7 7 5 10 8 10 8 5 10 6 3 5 7 2 2 3 2 2 4 4 4 5 6 5 5 5 5 4 3 1 1 1 2 3 5 5 4 5 6 7 8 9 10 7 5 5 4 5 5 4 4 4 2 2 3 3 2 4 7 8 8 9 8 7 7 7 6 6 6 5 5 4 5 5 5
5 5 6 3 1 1 4 2 2 3 6 7 7 3 1 3 5 6 6 6 8 7 6 6 4 4 0 2 6 4 3 4 5 5 5 4 4 4 4 5 5 4 3 1 1 2 4 4 4 4 4 5 5 8 9 9 8 5 3 4 5 7 7 6 7 7 8 7 6 5 5 7 5 5 7 6 6 6 6 6 6 5 5 4 4 4 6
7 5 3 5 4 3 3 4 4 4 5 5 3 4 6 5 6 4 1 4 6 4 2 2 2 4 5 2 2 4 4 4 4 3 4 5 5 6 5 5 5 6 6 5 5 4 4 4 4 4 5 4 4 5 6 8 10 5 4 4 6 7 7 7 8 9 9 10 10 11 11 12 13 10 8 7 6 6 6 6 5 4 4 4 5 5 5
5 7 4 6 3 6 10 6 7 11 7 7 1 1 3 7 6 4 4 8 5 4 1 3 2 2 1 1 1 3 4 1 1 1 2 3 4 6 6 7 7 7 7 6 6 7 6 7 6 5 4 5 5 6 7 7 7 8 5 6 6 6 6 7 8 9 9 10 11 11 11 10 10 10 9 8 7 7 7 5 5 5 5 5 5 4 5
6 2 2 1 2 9 8 2 8 11 9 8 7 5 6 6 5 4 6 6 4 1 4 5 3 1 1 2 4 3 3 3 1 1 1 2 3 4 5 5 5 6 7 7 7 6 7 8 7 6 5 6 8 7 8 6 6 8 8 8 7 8 7 8 8 9 10 11 11 10 9 9 9 8 8 8 7 6 7 6 6 5 5 5 4 4 4
7 2 1 2 9 11 3 1 1 3 5 6 7 4 5 3 2 1 1 2 3 4 4 4 4 3 4 4 7 6 3 4 2 0 3 5 5 5 6 7 7 7 7 8 7 8 8 8 8 8 10 7 8 9 6 7 7 7 7 8 9 9 8 9 8 8 9 10 9 9 9 11 12 11 11 9 9 8 9 9 8 8 7 6 5 5 4
1 1 4 2 8 3 4 6 4 4 0 1 2 4 4 3 3 4 4 3 2 4 3 4 4 3 4 6 5 5 4 4 2 1 2 4 4 5 6 6 7 7 8 8 8 9 7 8 9 8 11 11 10 12 9 8 8 7 8 8 9 9 9 9 9 10 10 9 11 13 13 12 12 12 10 10 9 7 7 6 6 6 4 5 5 5 5
5 3 6 10 5 8 4 3 3 3 1 1 1 4 6 1 1 2 2 2 2 3 4 4 3 1 2 1 6 3 3 5 4 3 4 4 5 5 6 5 7 7 7 7 8 7 8 8 10 11 11 11 11 12 12 10 8 8 8 9 10 10 10 10 10 10 10 11 12 12 12 12 11 10 9 7 7 7 8 8 8 7 7 5 5 5 4
4 4 4 4 2 5 3 1 3 2 2 3 5 5 1 3 2 1 4 3 4 5 4 4 4 1 1 3 4 6 6 5 6 4 4 4 5 5 6 6 5 5 6 6 7 8 10 10 10 11 12 11 11 12 12 10 9 9 9 10 9 8 10 10 10 10 9 8 10 11 11 13 12 10 8 7 7 7 9 8 7 7 6 5 4 4 4
2 1 3 4 3 4 2 5 5 4 2 5 4 4 0 1 2 3 3 4 4 5 4 4 1 2 4 6 6 8 7 6 4 5 6 5 5 5 5 5 6 6 7 7 9 9 9 11 11 11 11 10 10 12 12 11 10 11 11 10 8 8 9 9 9 9 9 10 11 11 11 11 12 12 10 9 7 6 7 7 6 5 5 5 4 3 3
3 3 3 5 2 1 1 4 4 4 7 4 5 1 3 2 4 5 3 6 4 5 4 2 1 1 5 6 7 5 5 4 3 4 7 7 8 8 6 5 6 7 7 8 9 9 10 12 11 10 9 8 9 10 11 10 11 13 12 10 9 8 8 7 5 6 7 7 6 9 10 9 7 10 8 8 7 7 6 6 6 5 4 4 4 3 2
4 3 4 2 3 1 2 3 3 6 3 3 2 4 1 5 6 6 4 5 5 3 4 2 4 5 7 7 4 2 4 6 8 5 5 6 6 7 7 8 6 7 8 7 9 11 10 11 10 9 8 8 9 9 9 11 13 13 12 10 8 7 6 7 7 8 8 9 8 8 8 10 9 8 8 8 7 6 6 3 4 4 3 3 3 1 0
1 2 3 6 2 3 2 3 0 3 2 0 3 2 2 3 6 5 3 4 6 4 5 5 5 6 6 7 5 5 5 6 8 7 8 8 7 5 6 8 7 8 8 7 8 9 9 10 9 8 8 10 9 8 9 12 13 12 12 7 5 7 9 9 10 11 12 12 12 8 6 9 9 8 5 7 7 6 6 6 4 4 3 3 2 0 1
1 2 0 1 1 1 1 2 3 2 2 3 3 4 4 1 3 4 4 3 7 4 5 6 7 7 8 8 9 8 6 6 8 9 8 8 9 10 8 8 7 7 9 9 9 9 8 8 8 8 9 10 9 9 12 14 11 10 5 7 9 10 11 12 12 12 11 11 9 8 7 9 10 7 5 5 4 5 5 4 4 4 4 3 2 0 2
1 0 1 1 3 1 1 2 1 1 4 4 2 1 4 4 2 3 4 5 5 5 5 7 7 7 7 9 8 8 7 6 7 7 7 7 8 8 8 8 10 8 9 9 10 9 8 8 8 8 8 8 9 11 14 11 7 6 9 11 13 13 12 12 13 13 13 10 6 7 9 10 9 9 6 4 4 5 5 6 6 3 2 2 1 0 2
1 3 4 5 3 2 2 2 3 6 7 3 4 4 4 4 6 3 3 6 8 6 6 6 6 7 8 9 9 8 11 10 9 9 10 8 9 9 9 11 10 8 9 10 10 9 8 9 9 8 4 6 7 8 7 4 7 9 11 13 15 15 14 13 11 8 8 9 9 8 8 9 8 7 5 5 5 2 4 4 4 3 2 2 2 2 2
3 4 8 5 4 1 3 2 4 7 7 5 3 5 5 5 7 5 6 6 7 8 6 5 6 6 8 10 11 10 10 10 10 8 9 9 7 8 9 9 9 9 9 9 9 10 10 9 8 4 3 2 4 5 4 2 3 9 14 15 14 14 14 13 12 11 12 10 9 7 6 7 7 7 8 6 6 5 3 3 3 2 2 2 2 3 5
3 4 4 1 3 4 5 6 7 6 5 5 4 5 5 7 7 7 6 7 8 9 8 7 9 10 10 10 10 10 10 11 10 10 10 9 8 9 10 10 8 9 8 9 9 9 10 9 7 2 1 3 3 4 5 4 4 9 11 14 15 15 16 13 8 7 9 7 6 5 5 6 5 5 6 5 5 4 3 3 2 1 1 3 4 4 6
6 6 5 7 8 7 7 8 7 5 6 8 7 7 8 8 6 5 8 7 7 6 8 10 10 11 10 8 10 10 10 10 9 9 8 9 8 8 9 9 9 9 8 8 8 7 8 8 3 0 2 4 5 5 6 6 7 11 13 13 12 9 8 7 8 8 7 8 8 6 6 7 6 5 4 5 6 5 5 4 3 3 4 4 5 6 7
5 5 9 11 9 8 8 7 5 6 7 7 8 8 8 7 8 9 9 7 9 6 10 8 7 8 10 9 10 11 10 9 9 9 8 8 8 9 9 8 8 8 7 8 6 6 7 3 3 2 5 5 5 6 5 7 10 13 12 10 9 8 7 7 7 7 7 6 6 6 6 5 3 4 6 5 4 1 1 4 6 5 5 5 5 6 6
7 7 9 2 5 8 8 7 6 7 8 7 9 7 6 7 8 9 9 10 7 7 8 8 7 9 10 10 8 10 10 9 9 7 8 8 8 9 8 7 8 9 8 7 6 6 5 3 6 6 8 6 6 6 4 7 8 10 10 11 11 10 8 7 7 7 6 6 6 6 6 6 6 4 4 4 4 2 2 6 8 6 6 5 6 6 5
8 9 11 5 6 9 11 12 10 6 7 6 8 9 10 10 8 7 7 9 9 8 7 6 7 9 10 12 9 9 9 9 8 7 7 8 8 8 8 8 10 9 8 6 6 5 1 7 7 9 9 7 6 2 2 2 2 4 7 9 8 7 7 7 8 7 6 6 6 6 6 6 5 7 4 1 1 4 4 4 6 9 9 11 9 7 7
11 12 12 11 8 11 13 10 7 9 8 7 10 10 8 8 8 7 6 7 8 10 8 8 7 9 10 10 8 10 10 8 7 7 7 7 8 9 8 9 9 9 8 5 3 3 5 9 8 10 10 9 6 4 4 3 3 2 3 5 7 6 7 7 8 7 7 7 6 6 6 5 6 6 6 3 1 4 3 5 5 6 9 10 11 11 11
10 10 8 8 8 12 10 10 10 8 7 7 9 10 8 7 7 6 8 9 7 9 9 10 10 7 8 10 8 9 8 7 5 7 8 8 9 9 8 8 8 8 7 3 2 5 9 9 9 10 11 9 3 5 5 4 3 3 3 6 8 7 7 7 6 8 8 7 6 7 6 5 5 4 6 5 3 1 1 3 3 7 9 10 11 11 11
10 11 11 10 9 11 10 10 12 10 10 8 5 4 5 6 8 8 9 9 9 8 8 9 9 9 5 8 7 6 5 7 8 7 6 7 6 6 7 7 6 5 2 1 4 8 10 11 12 11 8 5 4 6 6 6 4 3 5 8 9 9 8 8 8 7 6 6 7 7 6 6 6 5 4 5 4 3 0 5 6 5 5 7 9 10 9
8 9 9 12 13 11 7 8 8 6 6 5 5 6 7 7 8 7 7 7 8 8 8 9 8 7 5 5 5 5 5 7 6 6 5 6 6 6 6 5 2 0 3 5 6 10 12 11 10 8 5 3 4 4 6 6 3 4 5 6 5 7 11 9 7 7 6 7 7 6 6 6 5 4 4 4 3 2 2 2 3 4 6 7 4 2 2
8 8 5 9 12 10 8 7 6 5 5 6 5 5 5 5 5 5 6 7 7 7 5 3 3 3 3 3 2 5 5 4 5 4 4 4 5 5 2 3 6 6 5 7 7 9 9 9 8 5 2 3 4 4 5 5 5 6 6 7 7 6 5 7 7 6 6 7 7 7 6 6 6 6 4 4 3 3 2 2 3 4 5 3 3 5 6
10 9 8 8 10 9 9 9 8 6 5 3 3 3 3 5 6 5 6 6 6 6 6 4 2 3 3 4 3 3 4 4 5 5 5 5 7 7 5 8 9 9 9 9 6 7 7 6 5 4 3 4 1 4 5 7 7 8 7 7 7 6 6 6 6 6 6 6 6 7 5 4 3 3 2 2 1 0 0 1 2 2 2 4 6 7 4
9 8 8 9 9 8 7 6 4 3 3 4 4 5 4 4 6 6 6 6 5 6 6 3 2 3 4 3 2 4 6 6 5 5 8 10 9 9 7 6 11 11 11 10 9 8 9 8 7 7 6 6 2 3 5 6 7 6 6 6 7 7 6 4 4 5 5 6 6 6 3 2 1 2 2 1 0 0 0 1 1 1 3 4 3 3 5
14 12 10 10 7 2 0 2 3 3 4 4 4 5 6 4 5 7 7 6 6 6 4 2 1 3 4 7 8 7 7 7 8 9 10 10 10 10 9 8 11 10 9 8 8 10 10 8 8 7 6 5 4 1 6 8 7 6 6 5 5 7 8 7 6 6 6 6 4 4 3 1 1 1 1 1 1 1 1 1 1 1 1 1 1 3 4
14 12 11 5 2 2 2 2 3 4 5 5 6 6 6 6 8 9 8 7 7 5 2 1 1 6 9 8 8 7 8 9 9 9 9 9 9 9 8 8 10 10 10 10 10 10 9 9 9 7 5 5 4 2 5 9 7 7 7 6 6 4 5 9 6 6 4 4 3 5 2 1 2 1 2 3 2 2 2 1 1 2 1 2 2 3 4
8 6 4 5 6 4 4 3 5 7 7 7 7 7 8 8 7 7 7 6 2 1 3 6 9 9 9 8 8 7 7 8 8 8 9 9 9 8 8 8 11 13 12 10 9 9 10 9 7 6 6 5 5 5 5 4 5 7 6 6 6 6 6 7 7 7 6 6 5 4 4 6 5 5 4 3 2 1 1 2 2 3 3 2 4 4 3
6 5 7 6 5 5 7 8 7 7 8 7 7 8 8 4 1 4 6 7 9 10 10 10 10 9 8 9 9 8 6 8 10 10 9 9 9 9 10 10 11 13 12 12 13 11 10 9 7 7 7 8 8 6 5 6 6 6 6 6 7 7 7 7 7 7 6 5 5 6 6 6 7 6 5 3 3 4 6 5 6 5 5 5 5 5 6
4 4 5 5 5 5 6 5 7 7 8 8 6 7 8 8 9 10 10 10 10 9 9 10 11 10 10 10 10 8 9 10 9 9 9 9 9 8 8 11 13 14 15 14 13 11 10 9 9 8 9 10 10 8 7 7 7 7 7 8 8 7 6 7 7 6 5 5 5 7 7 7 6 5 4 5 5 5 6 6 6 5 6 6 6 6 7
6 6 5 5 5 5 5 5 5 6 5 5 6 7 6 8 10 11 13 11 9 10 11 11 11 11 12 11 10 9 9 9 9 9 9 9 7 8 12 13 13 13 13 13 13 11 10 9 10 11 11 11 10 9 8 6 8 8 7 8 8 7 7 7 7 6 6 6 7 7 6 6 6 6 5 5 6 6 6 5 5 5 5 5 5 6 6
6 5 5 5 5 5 5 4 4 4 5 5 5 7 9 12 13 12 12 12 12 11 11 10 12 14 12 10 9 9 9 8 8 8 7 7 7 12 13 14 14 12 11 11 11 10 9 8 10 14 12 9 10 10 10 11 8 7 8 8 7 7 7 8 7 7 7 6 6 6 7 6 6 6 6 6 6 5 5 5 6 5 5 5 5 5 6
6 5 6 5 5 5 6 6 5 5 5 7 7 8 10 11 11 11 12 12 11 11 11 11 11 10 9 9 9 10 8 8 8 9 10 10 10 14 13 12 11 9 10 9 8 8 8 9 10 10 9 8 7 8 9 13 11 9 8 8 7 7 7 7 7 7 7 7 6 7 7 6 6 6 6 6 6 5 5 5 5 5 4 5 4 5 5
7 6 6 5 5 6 7 8 8 7 7 10 12 12 10 10 10 12 12 11 9 9 10 10 9 10 10 11 10 9 8 8 9 10 11 12 12 14 12 11 10 9 7 6 6 7 8 8 7 9 8 7 7 7 9 11 12 9 8 7 8 8 8 7 7 7 7 6 7 7 7 6 6 6 6 6 6 5 5 6 6 5 5 5 6 7 8
6 6 6 6 7 6 8 9 9 10 9 9 11 10 8 10 10 11 11 11 9 8 9 9 10 10 10 11 10 9 8 8 8 10 11 10 10 11 10 11 11 9 9 9 8 7 10 11 9 8 7 7 7 7 7 10 11 8 8 8 8 8 7 7 7 7 7 7 7 7 7 7 6 6 6 6 6 6 6 6 6 6 5 5 7 7 7
6 6 6 7 7 7 8 10 10 10 10 10 10 10 8 9 9 10 10 9 8 8 9 9 10 10 10 10 10 9 9 10 11 10 7 9 11 10 9 9 9 8 9 8 8 8 10 9 8 7 7 7 6 7 7 10 9 8 8 8 8 8 7 7 7 7 6 7 7 6 6 5 5 6 6 6 6 6 6 6 6 6 6 7 6 6 6
5 7 8 8 7 7 7 8 9 11 11 10 9 9 9 8 8 8 7 7 8 8 9 9 10 9 8 8 8 9 9 9 9 11 13 13 9 7 8 7 7 7 10 9 8 8 8 8 8 7 7 6 7 11 10 9 8 8 8 8 8 7 7 7 7 6 6 6 6 5 5 5 6 6 6 6 6 6 6 6 6 6 6 6 6 6 6
5 7 8 7 7 7 7 8 9 10 10 8 7 7 7 7 7 8 8 8 8 8 9 8 8 8 7 7 8 9 7 7 9 10 11 10 10 8 7 5 5 7 10 8 8 7 8 7 7 7 10 9 8 11 11 8 8 8 8 8 8 7 7 6 6 5 5 6 6 6 6 6 6 6 6 6 6 6 6 6 6 6 6 6 6 6 6
4 5 5 7 7 6 6 7 7 9 9 7 5 6 7 7 7 8 8 8 8 8 8 8 8 8 8 8 9 8 6 6 6 6 8 7 8 8 6 5 5 7 10 7 7 7 7 7 7 10 12 13 13 12 8 8 8 8 7 7 7 7 6 6 6 5 6 6 6 7 6 6 6 5 6 6 6 6 6 6 6 6 6 6 6 6 6
4 4 5 5 5 6 7 7 8 8 6 5 6 7 7 7 7 7 8 8 8 7 7 7 8 8 8 8 8 7 6 6 5 4 6 7 8 8 6 5 6 5 7 9 7 7 7 8 11 14 12 13 12 11 8 7 6 6 6 6 6 6 6 6 6 6 6 6 6 5 5 5 5 5 5 6 6 6 7 7 7 7 7 6 7 7 7
2 3 3 4 6 5 5 6 6 6 7 9 9 8 7 6 6 6 6 7 8 7 6 6 7 7 8 8 8 8 8 8 8 7 6 5 6 2 4 5 5 6 9 10 7 7 8 13 15 13 13 13 11 8 7 7 6 6 6 6 6 5 5 5 5 5 5 6 5 5 5 5 5 5 5 6 6 6 7 7 6 6 6 7 7 7 7
1 2 3 3 3 3 3 4 4 6 6 6 6 6 5 6 6 6 6 7 8 7 7 6 6 5 5 5 5 6 7 7 6 6 5 5 4 4 5 6 7 9 8 7 7 7 7 9 11 13 12 12 10 7 6 6 6 6 6 6 5 5 5 5 5 5 5 5 5 5 6 6 5 5 6 6 6 6 6 6 6 6 6 6 7 7 7
0 1 1 1 2 2 3 4 5 5 4 4 4 5 4 5 6 6 6 7 8 8 7 7 6 6 6 6 6 4 4 6 7 4 4 3 3 3 4 5 6 8 9 8 9 9 14 13 13 13 13 10 7 6 6 6 6 6 6 6 6 5 5 4 5 4 4 5 5 5 5 5 5 5 5 6 6 6 6 6 6 6 6 6 6 7 7
2 3 2 0 1 2 3 4 4 4 4 3 5 5 4 6 6 6 6 7 8 7 7 6 7 6 6 6 6 5 5 4 3 3 1 2 4 4 4 5 8 8 7 6 7 6 10 13 13 13 12 9 6 6 5 5 6 6 5 5 5 5 4 4 4 4 4 5 5 5 5 5 5 5 5 5 5 5 6 6 6 6 6 6 6 7 7
4 2 1 2 1 2 4 4 5 5 3 4 6 5 5 6 7 5 5 6 6 6 6 6 5 5 5 5 5 5 5 5 5 5 4 4 4 4 4 4 5 6 7 6 6 6 8 12 11 11 8 6 6 5 5 5 6 5 5 5 6 5 6 5 6 7 6 5 5 5 5 5 5 5 5 5 5 5 5 5 5 7 10 7 6 6 6
5 5 6 4 3 2 2 3 5 6 5 5 5 5 6 7 6 4 5 6 6 6 6 5 5 4 4 5 4 4 4 5 5 5 5 5 4 4 4 4 4 4 5 5 5 5 4 4 5 6 6 5 5 5 4 5 4 5 5 5 5 5 4 5 5 5 5 5 4 5 5 5 5 5 5 5 5 5 5 5 5 5 6 6 6 6 6
6 5 4 3 3 3 3 3 3 4 5 5 6 6 6 6 6 5 4 3 5 6 5 6 5 3 4 4 4 4 5 5 4 5 4 5 5 4 4 4 4 4 4 5 4 5 4 4 5 5 6 5 4 4 5 6 5 4 5 5 5 5 5 5 5 5 5 6 5 5 5 5 5 5 5 5 5 5 5 5 5 5 6 6 6 6 6
Wind_Direction
258 221 233 256 267 213 221 221 200 179 226 188 186 224 210 147 186 234 245 178 215 233 205 229 250 257 272 313 327 297 255 239 354 27 31 25 17 17 34 21 25 27 20 4 354 354 352 355 354 346 343 339 341 342 329 301 268 243 224 211 215 218 214 230 265 301 318 313 186 163 167 166 160 162 162 154 150 150 151 148 156 163 161 150 143 136 133
315 293 265 269 221 267 247 241 232 222 176 218 215 229 206 182 216 221 234 207 238 238 214 237 253 275 244 275 299 337 31 353 358 22 28 17 5 14 8 351 347 2 5 334 320 319 329 334 332 335 334 331 332 332 328 324 304 272 222 218 212 203 192 191 164 136 149 166 202 190 173 165 156 146 147 147 149 152 153 152 154 156 152 150 144 146 130
292 287 317 326 291 215 272 272 241 205 202 223 230 235 249 206 273 276 267 265 272 268 212 239 294 319 251 46 23 356 311 345 1 14 6 0 2 345 345 345 340 327 310 277 265 292 302 305 298 301 301 308 317 325 321 318 310 296 253 205 198 193 193 169 159 156 155 158 156 149 129 108 113 141 146 146 154 151 146 147 152 154 139 127 124 128 133
289 295 338 301 328 319 239 235 220 208 205 224 231 208 209 168 222 237 279 297 266 272 271 246 319 21 53 43 326 338 323 318 8 15 358 358 347 347 341 338 338 336 333 328 324 308 292 277 276 284 290 281 292 289 293 302 302 297 271 233 213 214 195 185 183 174 170 165 162 167 175 166 162 161 154 154 152 151 145 143 146 127 114 128 134 132 120
254 259 247 262 319 349 288 260 195 202 211 210 216 289 205 202 174 191 209 238 220 191 137 91 347 11 356 331 267 281 302 350 72 38 0 345 333 337 331 332 331 324 318 311 308 314 315 316 310 293 270 283 277 268 270 271 288 295 262 243 239 226 203 194 191 182 177 175 180 177 175 162 147 147 156 153 149 150 157 147 122 119 136 129 132 130 125
255 280 337 319 29 263 245 232 181 177 206 212 214 225 211 232 155 199 189 211 205 142 124 149 185 204 253 235 257 218 218 278 278 324 290 307 305 304 312 306 304 305 306 303 298 294 294 294 295 293 291 281 281 277 274 272 272 277 279 263 240 233 212 204 196 189 182 181 180 173 162 147 139 137 142 157 160 148 128 120 123 127 135 132 138 137 143
260 277 69 307 252 255 255 286 216 197 179 155 180 230 236 208 180 125 168 173 162 192 177 164 186 220 262 267 257 278 251 195 170 354 330 327 319 309 305 310 308 305 298 294 296 303 304 303 305 314 309 303 295 291 276 272 262 263 264 264 255 240 224 212 202 197 188 185 167 154 152 145 146 157 166 159 153 152 145 147 147 150 150 147 159 157 161
28 82 134 180 243 259 322 299 282 251 81 157 72 325 292 273 216 199 193 196 197 186 215 232 218 213 264 308 277 239 245 199 161 176 279 278 284 291 283 285 289 291 294 290 289 290 294 303 301 301 298 300 300 292 291 277 276 264 260 256 252 245 234 219 207 204 192 173 163 163 160 156 158 159 159 157 149 141 126 130 137 137 143 144 160 173 184
208 187 177 232 332 315 306 287 360 23 343 288 225 246 287 269 267 158 161 201 251 281 255 239 254 272 344 318 298 281 214 227 212 206 239 234 258 263 271 264 271 275 282 286 285 286 288 288 293 294 294 296 292 293 291 285 279 272 262 255 249 237 231 217 206 198 190 178 173 167 160 154 153 148 145 145 140 133 128 139 143 150 162 178 176 174 180
157 220 281 315 318 265 284 234 289 231 231 237 235 151 318 317 302 168 140 196 243 240 272 280 266 142 108 333 280 274 272 254 258 266 260 273 269 267 269 279 280 283 280 281 279 276 281 285 284 286 288 291 291 287 286 287 283 275 266 259 251 235 225 214 203 194 181 163 159 164 162 155 154 149 139 135 139 139 134 145 154 174 176 170 179 171 165
65 199 206 222 198 247 216 271 282 278 255 244 222 72 188 260 306 285 243 271 244 218 231 254 196 32 349 278 265 271 263 261 250 269 284 279 269 266 268 269 278 282 281 275 280 284 281 280 279 278 279 281 282 283 285 286 280 273 268 263 254 234 222 209 202 183 161 169 173 164 158 150 141 137 139 140 137 128 135 149 169 169 167 171 173 181 187
204 167 209 248 203 228 303 267 293 298 300 321 60 283 270 265 284 260 195 248 265 269 243 206 12 237 273 279 267 242 254 270 268 264 284 292 292 292 281 273 259 266 276 291 289 281 275 273 276 276 274 273 270 274 279 277 275 270 269 265 250 228 212 193 169 150 163 162 150 138 125 114 110 115 118 115 126 134 154 161 163 171 168 157 169 191 155
242 219 264 330 309 279 283 285 306 317 306 60 117 200 242 297 293 288 247 262 254 232 271 189 276 228 223 247 274 348 306 309 299 282 267 262 262 271 274 272 277 279 274 264 267 270 272 275 275 272 269 266 266 267 270 273 268 268 267 260 239 205 169 143 130 119 103 107 105 101 112 118 120 117 121 131 138 147 155 143 123 136 152 151 171 229 30
244 220 185 233 234 234 230 267 228 290 35 81 206 229 228 245 285 298 233 249 273 253 264 255 233 257 274 287 293 285 270 259 271 280 283 291 284 250 244 263 276 281 280 274 267 266 263 268 269 264 259 260 262 263 264 263 263 261 261 239 174 140 134 131 125 125 124 122 111 114 135 124 121 123 128 137 151 151 142 147 152 155 140 140 146 244 306
30 54 265 351 255 281 180 272 14 14 84 233 246 287 293 249 297 291 294 231 268 239 272 260 259 278 289 286 287 285 274 264 271 279 286 287 287 292 293 288 271 269 286 288 282 276 276 271 269 265 262 263 264 261 261 259 255 251 214 154 137 130 126 123 123 123 121 118 124 137 142 124 119 128 137 129 127 132 135 143 159 176 147 143 137 41 337
194 265 230 207 196 238 227 104 184 239 229 255 242 156 280 302 241 267 275 275 259 254 242 270 284 277 280 290 285 285 277 256 254 261 263 264 271 274 268 267 282 287 282 283 286 287 284 277 272 272 268 267 266 267 266 264 242 192 161 146 132 128 127 124 125 129 127 128 141 136 136 135 138 138 139 129 130 148 152 156 167 159 134 122 106 76 302
178 213 221 256 237 237 262 156 211 255 268 207 207 178 220 253 281 222 251 268 278 266 254 259 256 279 277 273 275 276 279 285 283 284 283 281 277 275 281 287 288 286 283 288 291 289 283 279 281 284 260 251 263 269 276 246 188 165 148 138 132 129 126 121 115 109 109 121 139 158 152 131 119 116 115 132 128 153 138 140 144 164 153 148 185 233 262
293 256 224 261 308 310 314 268 267 276 271 260 206 221 253 241 231 235 242 259 264 275 264 258 277 255 264 274 281 280 280 282 284 282 280 277 268 269 277 283 283 282 286 287 288 287 285 282 285 268 270 298 301 301 330 312 199 156 143 133 125 122 117 123 134 138 146 159 152 141 112 114 127 141 149 157 144 153 140 138 134 146 153 180 225 233 250
8 285 339 293 258 282 284 282 275 269 259 261 255 263 253 261 264 268 263 252 263 263 271 251 251 262 263 268 273 279 283 281 276 273 270 266 259 266 273 272 281 286 285 287 286 285 284 284 291 272 333 7 351 351 5 6 94 106 105 112 115 121 128 132 141 149 138 129 113 103 109 108 114 123 132 127 123 130 130 129 119 125 183 219 243 246 256
221 242 257 282 288 282 274 268 271 269 266 263 260 249 257 265 272 264 267 273 270 254 256 248 245 253 261 265 270 271 269 267 270 269 262 259 265 262 259 270 273 274 275 275 279 281 279 285 310 295 53 47 42 33 30 41 83 91 91 95 102 105 108 127 128 123 113 111 116 121 128 126 117 94 84 124 129 144 150 147 141 195 214 232 237 245 253
269 273 272 266 285 284 270 262 249 238 249 256 269 268 266 264 265 271 270 246 248 255 252 250 241 256 266 256 256 262 267 269 267 262 256 257 260 268 274 271 267 268 274 278 270 266 281 300 113 114 76 65 69 62 57 64 73 87 95 97 101 122 135 132 117 115 128 140 133 128 109 78 83 136 144 134 136 147 211 151 162 177 204 227 238 236 230
281 252 271 260 301 288 295 269 250 261 261 261 266 271 266 255 254 257 264 276 266 251 255 256 252 254 265 267 260 262 261 261 264 264 264 266 270 272 269 267 265 268 267 262 260 270 299 150 146 122 91 81 80 84 75 112 122 134 139 145 150 158 150 132 123 135 143 136 138 119 110 117 103 57 53 127 147 141 190 206 210 203 163 205 220 207 220
261 263 263 251 228 261 259 270 275 250 256 258 262 265 265 271 269 266 271 279 290 283 267 239 235 250 257 266 268 267 265 259 248 248 260 272 277 277 274 276 275 268 263 241 237 267 214 150 146 127 137 147 163 224 274 209 195 170 167 153 149 138 127 135 150 146 129 122 117 112 123 124 122 123 107 71 162 196 211 211 208 216 216 232 229 209 200
261 266 275 278 272 271 280 279 278 284 280 264 263 262 262 265 267 268 263 256 264 277 275 271 249 254 264 266 263 264 266 259 255 261 261 260 261 268 271 265 267 266 261 248 253 262 158 150 142 137 154 179 188 185 189 181 200 212 177 137 133 134 139 143 143 135 134 130 121 120 122 127 134 131 133 147 320 322 292 255 259 246 237 239 241 243 235
257 265 264 268 262 267 268 279 284 282 276 262 265 275 274 274 276 275 279 279 262 258 269 273 272 259 254 266 259 251 250 258 258 264 269 271 271 269 268 271 266 254 246 238 220 162 149 148 143 159 176 194 181 171 164 176 201 186 146 131 128 134 138 144 143 140 134 127 128 130 133 130 121 123 132 136 165 267 337 4 294 238 236 242 252 256 265
258 271 278 278 276 275 284 293 287 278 267 259 258 275 279 276 279 287 280 274 275 271 265 267 273 276 260 259 252 240 261 265 266 271 276 277 276 274 272 263 256 243 258 225 159 148 145 147 154 174 189 200 163 156 160 194 199 155 147 142 145 147 150 151 143 142 132 131 134 142 148 147 149 151 154 155 178 180 321 333 345 348 317 274 266 278 288
265 264 284 297 286 279 260 239 258 276 294 291 264 271 280 285 288 282 276 274 269 271 270 268 262 271 272 232 250 263 253 274 285 277 269 278 279 280 277 272 256 80 111 117 124 143 146 151 163 172 192 188 168 152 170 193 171 148 144 133 124 133 142 143 143 141 136 134 137 142 145 150 151 155 180 189 167 153 180 234 268 282 293 310 332 136 265
273 272 244 250 268 275 279 279 286 291 274 273 284 287 289 300 304 308 305 306 312 308 298 267 255 252 285 293 279 294 297 296 298 299 311 304 306 319 328 84 84 85 91 102 116 134 144 154 157 161 154 173 171 160 173 168 161 148 130 122 123 133 138 131 125 129 135 136 142 151 162 176 170 181 170 156 169 193 199 215 240 266 300 270 279 317 305
275 268 261 245 253 267 280 286 287 284 285 287 282 274 301 316 302 299 295 290 284 295 301 300 299 266 262 284 300 304 325 353 354 358 345 354 5 16 35 77 77 76 78 82 85 96 95 87 85 78 20 343 135 159 164 164 157 135 128 127 130 133 142 141 138 130 130 137 148 158 164 150 154 163 140 115 107 101 246 245 260 262 241 303 340 337 344
285 279 273 277 283 284 273 275 283 300 309 308 316 305 296 283 292 288 285 288 293 297 285 272 303 322 319 309 352 46 45 21 11 20 33 26 18 13 6 51 78 67 64 56 57 66 67 59 54 48 11 346 3 120 163 148 118 120 125 136 137 142 146 144 128 123 124 140 148 144 118 91 117 128 117 108 88 88 301 284 289 323 333 338 344 299 307
294 285 272 271 267 275 339 320 310 300 298 303 302 294 290 270 264 279 283 284 292 280 276 246 267 320 22 54 50 43 45 32 27 41 43 37 34 30 21 40 71 63 61 56 53 57 60 53 48 33 1 1 9 224 153 117 118 113 115 123 128 137 134 130 115 115 113 117 124 129 93 77 63 72 49 20 4 15 271 257 317 312 278 313 299 302 295
294 285 275 266 256 293 315 320 330 318 313 306 306 302 294 296 292 287 285 287 284 264 242 274 32 66 64 52 44 37 52 50 49 51 50 50 47 40 40 53 74 75 63 56 50 47 48 47 38 10 2 24 37 27 119 123 126 125 131 134 128 119 101 93 83 74 87 96 89 79 95 88 21 14 29 9 336 303 273 266 334 308 310 8 326 301 296
336 339 10 354 334 329 330 342 336 321 311 308 302 294 287 278 272 268 268 268 285 60 60 70 81 73 65 60 53 36 34 46 57 59 55 53 49 43 45 49 58 58 52 46 49 48 42 35 14 358 18 31 43 48 54 83 109 119 123 110 96 81 68 59 71 76 64 67 69 73 63 60 57 52 39 13 349 337 329 344 351 2 358 328 305 302 309
342 342 325 336 340 324 321 319 315 301 304 310 305 299 297 315 37 45 52 69 68 65 65 66 73 70 59 52 44 33 42 64 54 48 43 46 41 37 40 48 56 58 52 40 37 32 23 16 6 13 27 38 37 39 53 68 72 70 75 79 79 73 65 59 62 68 76 73 79 71 70 67 56 53 44 40 44 47 50 48 40 26 15 1 349 340 334
287 298 321 325 317 305 297 295 293 307 313 314 343 19 37 55 61 61 58 58 63 68 75 79 78 72 63 59 54 46 46 57 53 56 47 44 38 33 42 53 51 51 47 36 30 22 13 14 15 19 36 41 40 38 42 61 72 78 73 77 76 78 79 78 74 75 85 86 76 71 61 58 53 44 42 45 47 50 54 50 43 34 32 17 358 354 358
347 339 335 335 331 329 319 311 321 318 320 21 47 48 45 62 62 63 64 62 62 64 68 72 75 71 63 55 51 44 45 46 47 49 50 44 44 48 54 52 52 52 50 41 21 11 4 11 13 38 51 41 39 34 34 57 73 75 80 82 84 83 79 79 80 77 60 63 64 64 66 66 61 52 42 45 42 40 44 41 31 29 30 22 9 4 360
5 4 354 354 354 355 360 355 340 11 57 51 44 58 67 65 68 71 73 71 66 64 64 68 69 69 66 58 55 51 47 45 46 50 52 47 53 60 57 53 44 43 41 41 2 352 355 7 9 45 51 47 41 37 28 47 71 67 72 73 77 79 82 78 68 68 60 52 60 61 61 58 52 43 39 41 41 35 37 36 28 25 23 16 14 13 7
13 14 16 12 1 6 17 16 12 26 70 74 59 60 66 73 72 75 73 71 69 68 68 66 67 70 70 65 58 53 48 49 55 60 58 47 44 59 47 43 31 23 33 22 344 348 357 355 14 46 47 48 45 44 44 56 66 64 66 66 70 74 74 76 73 66 61 53 49 53 51 50 46 41 34 34 31 28 27 30 30 25 14 15 16 19 14
21 14 15 13 20 25 32 44 42 41 49 77 78 72 72 78 77 77 74 69 67 69 74 72 72 69 65 61 54 45 38 41 47 53 56 56 52 57 57 47 38 27 21 351 354 8 5 10 32 44 46 40 45 46 44 48 60 68 64 63 62 66 66 66 67 67 60 56 51 47 45 44 41 42 35 32 24 18 20 22 24 20 17 8 20 25 21
24 17 15 24 31 27 52 57 54 54 54 62 78 78 71 76 73 75 76 72 61 61 70 72 68 68 65 64 56 46 29 29 40 51 51 53 54 58 57 42 26 17 10 10 16 19 19 20 32 44 37 29 31 41 45 53 60 60 61 62 62 61 63 62 64 63 58 57 57 52 48 44 40 38 38 32 27 26 21 17 18 13 11 10 18 18 18
28 29 32 37 38 42 57 66 64 57 59 62 66 68 66 77 80 79 76 76 71 66 66 68 73 69 65 66 65 56 47 40 42 42 48 63 55 45 50 39 6 5 7 12 18 23 27 31 30 37 33 32 32 39 51 52 57 62 60 59 59 60 61 60 62 61 61 59 58 54 49 42 42 41 36 29 24 20 18 13 14 10 10 10 6 7 12
39 47 45 45 42 48 58 65 75 73 64 60 63 66 65 65 71 77 80 79 73 69 70 64 66 71 72 71 74 69 61 54 55 53 51 53 49 50 54 38 3 4 6 12 18 27 32 34 34 35 31 38 42 44 54 57 56 59 63 58 59 57 59 58 60 61 61 62 60 57 49 43 45 43 35 29 24 18 15 12 8 8 6 4 3 4 3
29 57 56 43 44 48 61 69 72 74 71 57 54 62 68 71 75 79 76 73 73 73 70 70 69 69 69 71 72 67 59 52 57 61 65 59 52 48 56 40 13 17 16 23 22 31 32 34 35 38 39 43 45 46 54 56 57 58 58 59 58 57 56 56 56 55 53 57 55 51 45 49 48 44 39 36 30 23 17 16 11 7 5 0 358 1 1
23 41 56 56 48 43 54 63 71 73 71 59 54 67 72 72 71 78 82 83 80 78 83 80 75 69 64 63 65 60 47 41 51 50 64 63 58 45 35 36 21 25 29 31 31 35 34 33 33 35 39 43 44 45 50 52 54 57 59 59 60 58 58 59 55 56 56 55 57 55 51 49 48 44 44 40 36 29 25 19 16 9 4 3 1 359 0
30 42 39 50 61 60 56 58 65 69 67 67 62 58 57 63 67 75 87 89 88 86 82 79 77 75 72 67 67 62 55 45 41 34 63 57 54 34 7 20 29 35 36 39 38 37 36 33 33 34 36 37 42 45 51 49 50 54 57 61 63 66 65 62 57 55 51 52 49 46 40 37 36 32 33 32 34 31 26 19 18 13 10 7 6 2 1
36 41 43 56 58 57 53 71 75 84 84 79 69 53 46 52 61 63 66 76 75 68 69 73 77 76 84 85 80 71 64 57 47 45 53 63 83 72 353 26 28 37 39 41 42 38 35 32 33 34 33 32 31 38 43 43 43 45 47 50 49 49 51 55 52 52 48 48 46 41 33 29 27 29 28 30 33 33 26 19 14 11 12 12 12 9 3
18 40 63 83 81 65 62 63 78 87 89 84 77 64 42 51 60 63 63 64 68 67 62 60 61 54 48 61 74 85 82 68 50 34 39 46 50 49 30 34 37 39 37 39 38 37 34 33 33 32 34 33 34 34 35 38 40 38 40 38 39 36 33 34 38 41 41 42 41 39 36 32 29 27 28 29 29 26 20 17 16 11 7 11 9 2 6
26 131 161 148 108 66 69 78 82 78 73 83 95 87 78 71 68 65 66 71 69 65 61 56 53 48 45 48 45 46 64 96 89 34 359 30 35 39 34 38 41 42 42 40 38 32 33 36 36 34 31 30 34 32 32 30 33 34 37 33 32 32 28 26 30 33 40 43 44 44 40 36 31 31 32 31 28 24 19 18 13 8 10 12 6 3 7
199 217 243 320 55 70 90 100 95 88 92 104 99 97 99 90 77 67 68 73 74 69 64 59 57 55 51 50 53 53 39 25 92 132 40 50 57 47 36 36 38 39 40 41 35 28 32 37 39 37 33 29 31 29 29 32 33 32 31 27 23 24 27 30 26 29 38 43 41 44 44 42 35 32 29 29 27 24 20 18 14 14 11 7 3 7 6
184 159 183 168 142 131 133 115 113 128 136 112 108 120 114 100 86 70 75 84 89 86 73 60 53 49 53 52 49 46 50 65 64 69 70 59 56 54 49 46 45 44 46 44 37 28 31 37 37 36 34 26 26 31 31 35 36 34 30 28 25 21 24 31 37 36 36 36 39 40 37 36 37 35 32 29 27 25 21 17 12 11 9 6 8 5 353
171 183 201 203 197 185 166 149 148 145 135 125 120 114 104 96 108 108 108 114 107 95 90 70 54 45 58 61 55 46 54 55 57 56 60 52 54 53 49 51 51 50 49 47 42 29 16 18 26 22 26 26 22 25 29 36 38 36 34 31 28 18 12 18 23 31 29 29 33 36 33 31 32 32 32 29 25 22 19 15 9 7 9 8 4 359 353
155 150 138 126 122 114 115 108 117 122 127 127 127 116 111 118 113 102 77 78 110 115 121 110 83 32 49 77 80 71 60 61 60 55 53 55 53 46 38 42 40 39 51 58 49 40 30 25 26 25 27 19 19 24 28 35 39 40 35 31 30 31 27 24 21 26 32 32 28 27 29 28 24 29 28 24 20 19 17 14 9 7 5 6 0 352 350